Powrót do katalogu

COSMOS 2250

AktywnyMilitariaPO
NORAD 22651·PAYLOAD·🇷🇺 Russia

Wystrzelony May 11, 1993 z Plesetsk Cosmodrome

Loading…

Następne Przeloty (najbliższe 24 godziny)

TLE

ŚwieżeSource: Space-Track

Epoka: Sep 14, 2026, 12:34 UTC

1 22651U 93030F   26257.52427146  .00000000  00000-0 -60234-4 0  9994
2 22651  82.5781 264.1953 0010784  86.2090  82.7779 12.63099879537294

Śledź COSMOS 2250 w czasie rzeczywistym z AllMySat

Download on the App Store